Location: Namasale
(1.5000°N, 32.6167°E)
Time: 18:09:55
(UTC+00:00)

Courier 1B - Pass Details

Date: 20 April 2021
Orbit: 962 x 1209 km, 28.3° (Epoch: 09 May)

Event Time Altitude Azimuth Distance (km) Brightness Sun altitude
Rises 07:53:45 0° 258° (WSW) 3,912 10.4 59.8°
Reaches altitude 10° 07:56:50 10° 267° (W) 2,912 9.8 60.5°
Maximum altitude 08:03:13 36° 331° (NNW) 1,579 9.1 62.0°
Drops below altitude 10° 08:09:17 10° 36° (NE) 2,754 10.4 63.4°
Sets 08:12:07 0° 45° (NE) 3,675 10.9 64.0°
